YAOGAN-34

Satellite information

Favourite Embed

Satellite Type and Status

PAYLOADIN ORBIT

Key statistics

Satellite YAOGAN-34 at a glance.

Uptime

1641

Days in orbit

Revolutions

≈ 13.5

Per day

Orbit

LEO

Low Earth Orbit

Inclination

63.4

Latest

Satellite identification and parameters

Extended collection of information and parameters for YAOGAN-34.

Object identification

Identified? True

Debris? False

Object name: YAOGAN-34

International designator: 2021-037A

Object number (NORAD): 48340

Object ID (CCSDS): 48340

Country: PEOPLES REPUBLIC OF CHINA (PRC)

Current information (Y/N): Y

RCS size: LARGE

Orbital parameters

Period: 107.031 minutes

Inclination: 63.4062 deg

SMA: 7467.331 km

Apoapsis: 1139.239 km

Periapsis: 1039.153 km

RAAN: 25.4373 deg

Eccentricy: 0.00670159

Argument of periapsis: 355.373 deg

Mean anomaly: 4.6668 deg

Mean motion: 13.45410034 rev/day

Mean motion (dot): -0.00000044 rev/day2

B* drag term: 0.000076832812 1/REarth

Two-line elements (TLE)

Creation date: Oct. 27, 2025, 2:46 a.m.

Reference frame: TEME

Reference center: EARTH

Epoch: Oct. 26, 2025, 11:13 p.m. UTC

TLE line 0: 0 YAOGAN-34

TLE line 1: 1 48340U 21037A 25299.96750322 -.00000044 00000-0 76833-4 0 9993

TLE line 2: 2 48340 63.4062 25.4373 0067016 355.3730 4.6668 13.45410034220629

Live tracking on map

Real-time ground track for satellite YAOGAN-34.

In-orbit conjunctions

There are no conjunctions computed for YAOGAN-34, at the moment. Check back to stay up to date, as we update our databases every day.

Go to all conjunctions

Associated space launch

Officially described as an optical remote-sensing satellite built by SAST.

YAOGAN-34 was lifted into orbit during the mission ‘Long March 4C | Yaogan 34’, on board a Long March 4C space rocket.

The launch took place on April 30, 2021, 7:27 a.m. from Launch Area 4 (SLS-2 / 603).

For more information about the launch, click the button.

Launch to space Long March 4C | Yaogan 34
Long March 4C | Yaogan 34

Agency: N/A

Status: Launch Successful

Launch date: April 30, 2021, 7:27 a.m. UTC

Rocket: Long March 4C

Launch pad: Launch Area 4 (SLS-2 / 603)

Location: Jiuquan Satellite Launch Center, People's Republic of China

...

Latest news about this satellite

News about space launch
China launches military observation satellite

China launched an optical Earth observation satellite April 30, beginning a mission designed to provide detailed reconnaissance imagery to the Chinese military.


Newsletter sign-up

Weekly statistics, charts and insights to help you stay on top of the space industry.